Flag for Spain Weather past 2 weeks in Barcelona, Barcelona, Spain

Now
57 °F

Scattered clouds.


Feels Like: 55 °F
Forecast: 44 / 53 °F
Wind: 9 mph from Northwest

Location: Barcelona Airport

Current Time: Jan 31, 2015 at 3:13:15 PM

Latest Report: Jan 31, 2015 at 2:30 PM


Visibility: N/A

Pressure: 29.21 "Hg

Humidity: 44%

Dew point: 36 °F

Location of BarcelonaLocation

Historic Weather in Barcelona — Graph

°F

Barcelona temperature yesterday

Maximum temperature yesterday: 64 °F (at 1:30 AM)
Minimum temperature yesterday: 48 °F (at 11:30 PM)
Average temperature yesterday: 58 °F

Past Weeks' High & Low Weather Summary

 TemperatureHumidityPressure
High64 °F (Jan 30, 1:30 AM)100% (Jan 19, 6:30 PM)30.33 "Hg (Jan 19, 6:30 PM)
Low36 °F (Jan 18, 5:30 AM)17% (Jan 25, 3:30 AM)29.09 "Hg (Jan 31, 5:00 AM)
Average48 °F64%29.90 "Hg
* Reported Jan 16 2:00 PM — Jan 31 2:00 PM, Barcelona, Weather by CustomWeather, © 2014

Note: Actual official high and low records may vary slightly from our data, if they occured in-between our weather recording intervals... More about our weather records

Advertising

Barcelona weather history for previous 24 hours

 ConditionsComfort  
Time TempWeatherWind HumidityBarometerVisibility
2:00 PM
Jan 31
55 °FScattered clouds.14 mph51%29.21 "HgN/A
1:30 PM55 °FScattered clouds.9 mph51%29.21 "HgN/A
1:00 PM54 °FPassing clouds.12 mph54%29.21 "HgN/A
12:30 PM54 °FScattered clouds.15 mph54%29.21 "HgN/A
12:00 PM54 °FScattered clouds.9 mph54%29.21 "HgN/A
11:30 AM52 °FScattered clouds.7 mph62%29.21 "HgN/A
11:00 AM52 °FPartly sunny.8 mph62%29.21 "HgN/A
10:30 AM50 °FPartly sunny.7 mph71%29.18 "HgN/A
10:00 AM50 °FPartly sunny.1 mph67%29.18 "HgN/A
9:30 AM48 °FPartly sunny.3 mph82%29.18 "HgN/A
9:00 AM48 °FPartly sunny.7 mph76%29.15 "HgN/A
8:30 AM50 °FPartly sunny.7 mph67%29.15 "HgN/A
8:00 AM48 °FPassing clouds.6 mph71%29.12 "HgN/A
7:30 AM50 °FPassing clouds.8 mph67%29.09 "HgN/A
7:00 AM48 °FPassing clouds.13 mph76%29.09 "HgN/A
6:30 AM46 °FPassing clouds.6 mph82%29.09 "HgN/A
6:00 AM48 °FPassing clouds.3 mph76%29.09 "HgN/A
5:00 AM48 °FPassing clouds.3 mph82%29.09 "HgN/A
3:30 AM48 °FPassing clouds.6 mph82%29.12 "HgN/A
2:30 AM48 °FPassing clouds.3 mph82%29.15 "HgN/A
2:00 AM48 °FPassing clouds.8 mph87%29.18 "HgN/A
1:30 AM48 °FPassing clouds.7 mph82%29.18 "HgN/A
1:00 AM48 °FPassing clouds.7 mph87%29.18 "HgN/A
12:30 AM48 °FPassing clouds.7 mph87%29.21 "HgN/A
12:00 AM48 °FPassing clouds.5 mph87%29.21 "HgN/A
11:30 PM
Jan 30
48 °FPassing clouds.6 mph87%29.21 "HgN/A
11:00 PM50 °FPassing clouds.6 mph76%29.24 "HgN/A
10:30 PM50 °FPassing clouds.8 mph71%29.24 "HgN/A
10:00 PM50 °FPassing clouds.5 mph71%29.24 "HgN/A
9:30 PM50 °FPassing clouds.3 mph71%29.24 "HgN/A
9:00 PM50 °FPassing clouds.8 mph71%29.24 "HgN/A
8:30 PM50 °FPassing clouds.9 mph71%29.27 "HgN/A
8:00 PM50 °FPassing clouds.9 mph71%29.27 "HgN/A
7:30 PM52 °FPassing clouds.9 mph62%29.24 "HgN/A
7:00 PM52 °FPassing clouds.8 mph62%29.27 "HgN/A
6:30 PM54 °FPassing clouds.8 mph54%29.27 "HgN/A
6:00 PM54 °FPassing clouds.8 mph54%29.27 "HgN/A
5:30 PM55 °FPassing clouds.10 mph51%29.27 "HgN/A
5:00 PM55 °FPassing clouds.10 mph51%29.27 "HgN/A
4:30 PM55 °FPassing clouds.17 mph51%29.27 "HgN/A
4:00 PM57 °FPassing clouds.15 mph44%29.27 "HgN/A
3:30 PM57 °FPassing clouds.18 mph44%29.27 "HgN/A
3:00 PM57 °FPassing clouds.10 mph44%29.27 "HgN/A
Weather by CustomWeather, © 2014

See weather overviewHow to use our weather pages